Weather History for KFNB - June, 2013

Change the Weather History Date:

Saturday, June 29, 2013

  Actual Average Record
Temperature  
Mean Temperature 72 °F -  
Max Temperature 81 °F 90 °F 102 °F (1988)
Min Temperature 62 °F 66 °F 51 °F (2004)
Cooling Degree Days 6    
Growing Degree Days 22 (Base 50)    
Moisture  
Dew Point 59 °F    
Average Humidity 65    
Maximum Humidity 84    
Minimum Humidity 45    
Precipitation  
Precipitation 0.00 in - - ()
Sea Level Pressure  
Sea Level Pressure 29.87 in    
Wind  
Wind Speed 10 mph (NNW)    
Max Wind Speed 25 mph    
Max Gust Speed 31 mph    
Visibility 10 miles    
Events      
Averages and records for this station are not official NWS values.
T = Trace of Precipitation, MM = Missing Value Source: NWS Daily Summary

Daily Weather History Graph

Daily Weather History Graph

Search for Another Location

Airport or City:

Trip Planner

Search our weather history database for the weather conditions in past years. The results will help you decide how hot, cold, wet, or windy it might be!

Date:

Astronomy

Jun. 29, 2013 Rise Set
Actual Time 5:56 AM CDT 8:55 PM CDT
Civil Twilight 5:23 AM CDT 9:28 PM CDT
Nautical Twilight 4:41 AM CDT 10:09 PM CDT
Astronomical Twilight 3:53 AM CDT 10:58 PM CDT
Moon 12:24 AM CDT (6/29) 1:08 PM CDT (6/29)
Length of Visible Light 16h 04m
Length of Day
14h 59m
Waning Gibbous, 55% of the Moon is Illuminated
Jun 29
Waning Gibbous
Jun 29
Last Quarter
Jul 8
New
Jul 15
First Quarter
Jul 22
Full

Hourly Weather History & Observations

Time (CDT) Temp. Heat Index Dew Point Humidity Pressure Visibility Wind Dir Wind Speed Gust Speed Precip Events Conditions
12:53 AM 68.0 °F - 60.1 °F 76% 29.89 in 10.0 mi NW 5.8 mph - N/A   Clear
1:53 AM 64.9 °F - 60.1 °F 84% 29.87 in 10.0 mi WNW 8.1 mph - N/A   Clear
2:53 AM 64.9 °F - 59.0 °F 81% 29.86 in 10.0 mi WNW 6.9 mph - N/A   Clear
3:53 AM 64.0 °F - 57.9 °F 80% 29.86 in 10.0 mi NW 5.8 mph - N/A   Clear
4:53 AM 63.0 °F - 57.0 °F 81% 29.87 in 10.0 mi WNW 8.1 mph - N/A   Clear
5:53 AM 62.1 °F - 57.0 °F 84% 29.88 in 10.0 mi WNW 8.1 mph - N/A   Clear
6:53 AM 64.0 °F - 57.9 °F 80% 29.88 in 10.0 mi WNW 8.1 mph - N/A   Clear
7:53 AM 68.0 °F - 59.0 °F 73% 29.88 in 10.0 mi NW 10.4 mph - N/A   Clear
8:53 AM 73.0 °F - 60.1 °F 64% 29.88 in 10.0 mi NNW 9.2 mph 17.3 mph N/A   Clear
9:53 AM 75.0 °F - 62.1 °F 64% 29.88 in 10.0 mi NNW 10.4 mph 18.4 mph N/A   Clear
10:53 AM 77.0 °F - 61.0 °F 58% 29.87 in 10.0 mi NNW 16.1 mph 25.3 mph N/A   Clear
11:53 AM 79.0 °F - 59.0 °F 50% 29.87 in 10.0 mi NW 25.3 mph 31.1 mph N/A   Clear
12:53 PM 80.1 °F 80.6 °F 57.9 °F 47% 29.87 in 10.0 mi NW 16.1 mph 26.5 mph N/A   Partly Cloudy
1:53 PM 80.1 °F 80.4 °F 57.0 °F 45% 29.86 in 10.0 mi NNW 21.9 mph 28.8 mph N/A   Scattered Clouds
2:53 PM 81.0 °F 81.1 °F 57.9 °F 45% 29.85 in 10.0 mi NNW 19.6 mph 27.6 mph N/A   Scattered Clouds
3:53 PM 81.0 °F 81.1 °F 57.9 °F 45% 29.84 in 10.0 mi NNW 17.3 mph 29.9 mph N/A   Partly Cloudy
4:53 PM 80.1 °F 80.7 °F 59.0 °F 48% 29.84 in 10.0 mi North 18.4 mph 25.3 mph N/A   Mostly Cloudy
5:53 PM 79.0 °F - 60.1 °F 52% 29.84 in 10.0 mi North 12.7 mph 21.9 mph N/A   Scattered Clouds
6:53 PM 75.9 °F - 59.0 °F 56% 29.86 in 10.0 mi North 16.1 mph 28.8 mph N/A   Mostly Cloudy
7:53 PM 73.9 °F - 55.9 °F 53% 29.87 in 10.0 mi North 13.8 mph - N/A   Clear
8:53 PM 70.0 °F - 57.9 °F 65% 29.87 in 10.0 mi North 4.6 mph - N/A   Clear
9:53 PM 66.0 °F - 59.0 °F 78% 29.89 in 10.0 mi NW 3.5 mph - N/A   Clear
10:53 PM 66.9 °F - 59.0 °F 76% 29.91 in 10.0 mi North 4.6 mph - N/A   Mostly Cloudy
11:53 PM 64.9 °F - 59.0 °F 81% 29.91 in 10.0 mi NW 3.5 mph - N/A   Scattered Clouds